Tracking 28790 objects as of 18-Apr-2024
HD Live streaming from Space Station
objects crossing your sky now

COSMOS 1937

Track COSMOS 1937 now!
10-day predictions
COSMOS 1937 is classified as:


NORAD ID: 19038
Int'l Code: 1988-029A
Perigee: 763.5 km
Apogee: 796.9 km
Inclination: 74.0 °
Period: 100.3 minutes
Semi major axis: 7151 km
RCS: 2.2121 m2 (large)
Launch date: April 5, 1988
Source: Commonwealth of Independent States (former USSR) (CIS)
Launch site: PLESETSK MISSILE AND SPACE COMPLEX (PKMTR)
Your satellite tracking list
Your tracking list is empty




NASA's NSSDC Master Catalog

Two Line Element Set (TLE):
1 19038U 88029A   24109.19321403  .00000493  00000-0  17963-3 0  9992
2 19038  74.0434 113.8782 0023357  31.5517  42.6782 14.35610603886647
Source of the keplerian elements: AFSPC